Time,TemperatureF,DewpointF,PressureIn,WindDirection,WindDirectionDegrees,WindSpeedMPH,WindSpeedGustMPH,Humidity,HourlyPrecipIn,Conditions,Clouds,dailyrainin,SoftwareType,DateUTC
2013-05-04 00:00:00,63.4,47.4,30.05,SE,146,2.0,-999.0,56,0.00,,,0.00,Wunderground v.1.15,2013-05-04 04:00:00,
2013-05-04 00:01:00,63.4,47.4,30.05,SE,146,2.0,-999.0,56,0.00,,,0.00,Wunderground v.1.15,2013-05-04 04:01:00,
2013-05-04 00:03:00,63.3,47.3,30.05,SSE,158,3.0,-999.0,56,0.00,,,0.00,Wunderground v.1.15,2013-05-04 04:03:00,
2013-05-04 00:04:00,63.2,47.2,30.06,SSE,149,3.0,-999.0,56,0.00,,,0.00,Wunderground v.1.15,2013-05-04 04:04:00,
2013-05-04 00:06:00,63.1,47.1,30.06,SSE,149,3.0,-999.0,56,0.00,,,0.00,Wunderground v.1.15,2013-05-04 04:06:00,
2013-05-04 00:08:00,63.0,47.1,30.06,ESE,118,3.0,-999.0,56,0.00,,,0.00,Wunderground v.1.15,2013-05-04 04:08:00,
2013-05-04 00:14:00,62.8,47.3,30.06,SSE,154,3.0,-999.0,57,0.00,,,0.00,Wunderground v.1.15,2013-05-04 04:14:00,
2013-05-04 00:20:00,62.7,47.2,30.06,SSE,165,3.0,-999.0,57,0.00,,,0.00,Wunderground v.1.15,2013-05-04 04:20:00,
2013-05-04 00:26:00,62.5,47.1,30.06,SSE,151,2.0,-999.0,57,0.00,,,0.00,Wunderground v.1.15,2013-05-04 04:26:00,
2013-05-04 00:32:00,62.3,46.9,30.06,SSE,148,2.0,-999.0,57,0.00,,,0.00,Wunderground v.1.15,2013-05-04 04:32:00,
2013-05-04 00:38:00,62.2,46.8,30.06,SSE,148,2.0,-999.0,57,0.00,,,0.00,Wunderground v.1.15,2013-05-04 04:38:00,
2013-05-04 00:44:00,62.1,47.1,30.06,SSE,157,2.0,-999.0,58,0.00,,,0.00,Wunderground v.1.15,2013-05-04 04:44:00,
2013-05-04 00:50:00,61.7,46.8,30.06,SSE,163,1.0,-999.0,58,0.00,,,0.00,Wunderground v.1.15,2013-05-04 04:50:00,
2013-05-04 00:56:00,61.4,46.9,30.06,SSE,151,1.0,-999.0,59,0.00,,,0.00,Wunderground v.1.15,2013-05-04 04:56:00,
2013-05-04 01:02:00,61.1,46.7,30.06,SE,146,1.0,-999.0,59,0.00,,,0.00,Wunderground v.1.15,2013-05-04 05:02:00,
2013-05-04 01:08:00,60.9,46.5,30.06,ESE,107,0.0,-999.0,59,0.00,,,0.00,Wunderground v.1.15,2013-05-04 05:08:00,
2013-05-04 01:13:00,60.7,46.7,30.06,SE,136,0.0,-999.0,60,0.00,,,0.00,Wunderground v.1.15,2013-05-04 05:13:00,
2013-05-04 01:19:00,60.4,46.4,30.06,SE,146,1.0,-999.0,60,0.00,,,0.00,Wunderground v.1.15,2013-05-04 05:19:00,
2013-05-04 01:25:00,60.2,46.7,30.06,ESE,116,0.0,-999.0,61,0.00,,,0.00,Wunderground v.1.15,2013-05-04 05:25:00,
2013-05-04 01:31:00,59.9,46.4,30.06,South,173,0.0,-999.0,61,0.00,,,0.00,Wunderground v.1.15,2013-05-04 05:31:00,
2013-05-04 01:37:00,59.8,46.3,30.06,South,176,1.0,-999.0,61,0.00,,,0.00,Wunderground v.1.15,2013-05-04 05:37:00,
2013-05-04 01:43:00,59.7,46.2,30.06,SSE,150,1.0,-999.0,61,0.00,,,0.00,Wunderground v.1.15,2013-05-04 05:43:00,
2013-05-04 01:49:00,59.6,46.6,30.06,SSE,156,1.0,-999.0,62,0.00,,,0.00,Wunderground v.1.15,2013-05-04 05:49:00,
2013-05-04 01:55:00,59.5,46.5,30.06,SSE,152,1.0,-999.0,62,0.00,,,0.00,Wunderground v.1.15,2013-05-04 05:55:00,
2013-05-04 02:01:00,59.3,46.3,30.06,SE,143,1.0,-999.0,62,0.00,,,0.00,Wunderground v.1.15,2013-05-04 06:01:00,
2013-05-04 02:07:00,59.0,46.0,30.06,SSE,147,0.0,-999.0,62,0.00,,,0.00,Wunderground v.1.15,2013-05-04 06:07:00,
2013-05-04 02:13:00,58.9,45.9,30.05,SSE,166,1.0,-999.0,62,0.00,,,0.00,Wunderground v.1.15,2013-05-04 06:13:00,
2013-05-04 02:19:00,58.8,46.2,30.05,SE,142,1.0,-999.0,63,0.00,,,0.00,Wunderground v.1.15,2013-05-04 06:19:00,
2013-05-04 02:25:00,58.6,46.0,30.05,SE,145,1.0,-999.0,63,0.00,,,0.00,Wunderground v.1.15,2013-05-04 06:25:00,
2013-05-04 02:31:00,58.4,45.8,30.05,SSE,161,1.0,-999.0,63,0.00,,,0.00,Wunderground v.1.15,2013-05-04 06:31:00,
2013-05-04 02:37:00,58.2,46.1,30.05,SSE,153,1.0,-999.0,64,0.00,,,0.00,Wunderground v.1.15,2013-05-04 06:37:00,
2013-05-04 02:43:00,58.1,45.6,30.05,SSE,148,1.0,-999.0,63,0.00,,,0.00,Wunderground v.1.15,2013-05-04 06:43:00,
2013-05-04 02:48:00,57.9,45.8,30.05,ESE,121,0.0,-999.0,64,0.00,,,0.00,Wunderground v.1.15,2013-05-04 06:48:00,
2013-05-04 02:54:00,57.8,45.7,30.05,SE,132,1.0,-999.0,64,0.00,,,0.00,Wunderground v.1.15,2013-05-04 06:54:00,
2013-05-04 03:00:00,57.7,45.2,30.05,SSE,150,1.0,-999.0,63,0.00,,,0.00,Wunderground v.1.15,2013-05-04 07:00:00,
2013-05-04 03:06:00,57.7,45.2,30.05,SSE,148,1.0,-999.0,63,0.00,,,0.00,Wunderground v.1.15,2013-05-04 07:06:00,
2013-05-04 03:12:00,57.7,45.2,30.05,South,180,1.0,-999.0,63,0.00,,,0.00,Wunderground v.1.15,2013-05-04 07:12:00,
2013-05-04 03:18:00,57.8,45.3,30.05,ESE,106,3.0,-999.0,63,0.00,,,0.00,Wunderground v.1.15,2013-05-04 07:18:00,
2013-05-04 03:24:00,57.8,44.9,30.05,South,171,3.0,-999.0,62,0.00,,,0.00,Wunderground v.1.15,2013-05-04 07:24:00,
2013-05-04 03:30:00,57.7,44.8,30.05,SSE,153,1.0,-999.0,62,0.00,,,0.00,Wunderground v.1.15,2013-05-04 07:30:00,
2013-05-04 03:35:00,57.5,44.6,30.05,SSE,165,1.0,-999.0,62,0.00,,,0.00,Wunderground v.1.15,2013-05-04 07:35:00,
2013-05-04 03:41:00,57.3,44.4,30.05,SSE,165,2.0,-999.0,62,0.00,,,0.00,Wunderground v.1.15,2013-05-04 07:41:00,
2013-05-04 03:47:00,57.1,44.2,30.05,SSE,157,2.0,-999.0,62,0.00,,,0.00,Wunderground v.1.15,2013-05-04 07:47:00,
2013-05-04 03:53:00,56.9,44.0,30.05,SE,146,2.0,-999.0,62,0.00,,,0.00,Wunderground v.1.15,2013-05-04 07:53:00,
2013-05-04 03:59:00,56.7,43.8,30.05,SE,135,1.0,-999.0,62,0.00,,,0.00,Wunderground v.1.15,2013-05-04 07:59:00,
2013-05-04 04:05:00,56.4,42.7,30.05,South,172,2.0,-999.0,60,0.00,,,0.00,Wunderground v.1.15,2013-05-04 08:05:00,
2013-05-04 04:11:00,56.4,41.8,30.05,SE,142,3.0,-999.0,58,0.00,,,0.00,Wunderground v.1.15,2013-05-04 08:11:00,
2013-05-04 04:17:00,56.3,40.8,30.06,SSE,158,3.0,-999.0,56,0.00,,,0.00,Wunderground v.1.15,2013-05-04 08:17:00,
2013-05-04 04:23:00,56.2,41.2,30.05,SE,144,2.0,-999.0,57,0.00,,,0.00,Wunderground v.1.15,2013-05-04 08:23:00,
2013-05-04 04:28:00,55.8,40.3,30.05,SE,146,2.0,-999.0,56,0.00,,,0.00,Wunderground v.1.15,2013-05-04 08:28:00,
2013-05-04 04:34:00,55.5,40.0,30.06,SE,141,2.0,-999.0,56,0.00,,,0.00,Wunderground v.1.15,2013-05-04 08:34:00,
2013-05-04 04:40:00,55.1,38.7,30.06,SSE,149,2.0,-999.0,54,0.00,,,0.00,Wunderground v.1.15,2013-05-04 08:40:00,
2013-05-04 04:46:00,55.1,38.7,30.06,SE,143,3.0,-999.0,54,0.00,,,0.00,Wunderground v.1.15,2013-05-04 08:46:00,
2013-05-04 04:52:00,54.8,38.5,30.06,SE,138,2.0,-999.0,54,0.00,,,0.00,Wunderground v.1.15,2013-05-04 08:52:00,
2013-05-04 04:57:00,54.5,38.2,30.06,SE,138,1.0,-999.0,54,0.00,,,0.00,Wunderground v.1.15,2013-05-04 08:57:00,
2013-05-04 05:03:00,54.2,38.4,30.06,SE,128,0.0,-999.0,55,0.00,,,0.00,Wunderground v.1.15,2013-05-04 09:03:00,
2013-05-04 05:09:00,53.9,38.6,30.06,SSE,157,0.0,-999.0,56,0.00,,,0.00,Wunderground v.1.15,2013-05-04 09:09:00,
2013-05-04 05:15:00,53.7,37.9,30.07,SE,138,1.0,-999.0,55,0.00,,,0.00,Wunderground v.1.15,2013-05-04 09:15:00,
2013-05-04 05:20:00,53.6,37.8,30.07,SSE,150,2.0,-999.0,55,0.00,,,0.00,Wunderground v.1.15,2013-05-04 09:20:00,
2013-05-04 05:26:00,53.6,37.8,30.07,SE,137,2.0,-999.0,55,0.00,,,0.00,Wunderground v.1.15,2013-05-04 09:26:00,
2013-05-04 05:32:00,53.3,37.5,30.07,SE,142,1.0,-999.0,55,0.00,,,0.00,Wunderground v.1.15,2013-05-04 09:32:00,
2013-05-04 05:38:00,53.1,37.3,30.07,SSE,152,2.0,-999.0,55,0.00,,,0.00,Wunderground v.1.15,2013-05-04 09:38:00,
2013-05-04 05:44:00,52.7,37.4,30.07,SSE,153,2.0,-999.0,56,0.00,,,0.00,Wunderground v.1.15,2013-05-04 09:44:00,
2013-05-04 05:50:00,52.6,36.9,30.07,SSE,148,2.0,-999.0,55,0.00,,,0.00,Wunderground v.1.15,2013-05-04 09:50:00,
2013-05-04 05:56:00,52.6,36.9,30.07,SSE,157,3.0,-999.0,55,0.00,,,0.00,Wunderground v.1.15,2013-05-04 09:56:00,
2013-05-04 06:02:00,52.5,36.8,30.07,SSE,152,2.0,-999.0,55,0.00,,,0.00,Wunderground v.1.15,2013-05-04 10:02:00,
2013-05-04 06:07:00,52.3,36.1,30.07,SSE,150,2.0,-999.0,54,0.00,,,0.00,Wunderground v.1.15,2013-05-04 10:07:00,
2013-05-04 06:13:00,52.2,36.0,30.07,SSE,148,3.0,-999.0,54,0.00,,,0.00,Wunderground v.1.15,2013-05-04 10:13:00,
2013-05-04 06:19:00,51.9,35.3,30.07,SSE,158,3.0,-999.0,53,0.00,,,0.00,Wunderground v.1.15,2013-05-04 10:19:00,
2013-05-04 06:25:00,51.8,35.2,30.07,SSE,151,1.0,-999.0,53,0.00,,,0.00,Wunderground v.1.15,2013-05-04 10:25:00,
2013-05-04 06:31:00,51.7,34.6,30.08,SE,142,1.0,-999.0,52,0.00,,,0.00,Wunderground v.1.15,2013-05-04 10:31:00,
2013-05-04 06:37:00,51.7,34.1,30.08,SE,136,3.0,-999.0,51,0.00,,,0.00,Wunderground v.1.15,2013-05-04 10:37:00,
2013-05-04 06:43:00,51.6,35.0,30.08,ESE,118,2.0,-999.0,53,0.00,,,0.00,Wunderground v.1.15,2013-05-04 10:43:00,
2013-05-04 06:49:00,51.4,34.3,30.08,SSE,148,2.0,-999.0,52,0.00,,,0.00,Wunderground v.1.15,2013-05-04 10:49:00,
2013-05-04 06:54:00,51.5,34.4,30.08,ESE,121,3.0,-999.0,52,0.00,,,0.00,Wunderground v.1.15,2013-05-04 10:54:00,
2013-05-04 07:00:00,51.5,34.4,30.08,SSE,153,3.0,-999.0,52,0.00,,,0.00,Wunderground v.1.15,2013-05-04 11:00:00,
2013-05-04 07:06:00,51.4,34.3,30.08,SSE,164,3.0,-999.0,52,0.00,,,0.00,Wunderground v.1.15,2013-05-04 11:06:00,
2013-05-04 07:12:00,51.3,34.3,30.08,SSE,148,2.0,-999.0,52,0.00,,,0.00,Wunderground v.1.15,2013-05-04 11:12:00,
2013-05-04 07:18:00,51.4,34.8,30.08,SSE,154,2.0,-999.0,53,0.00,,,0.00,Wunderground v.1.15,2013-05-04 11:18:00,
2013-05-04 07:24:00,51.5,34.9,30.09,SE,132,2.0,-999.0,53,0.00,,,0.00,Wunderground v.1.15,2013-05-04 11:24:00,
2013-05-04 07:30:00,51.6,35.5,30.09,SE,128,1.0,-999.0,54,0.00,,,0.00,Wunderground v.1.15,2013-05-04 11:30:00,
2013-05-04 07:35:00,51.6,35.0,30.08,SSE,149,1.0,-999.0,53,0.00,,,0.00,Wunderground v.1.15,2013-05-04 11:35:00,
2013-05-04 07:41:00,51.8,35.2,30.08,SE,142,1.0,-999.0,53,0.00,,,0.00,Wunderground v.1.15,2013-05-04 11:41:00,
2013-05-04 07:47:00,51.9,35.3,30.08,ENE,69,1.0,-999.0,53,0.00,,,0.00,Wunderground v.1.15,2013-05-04 11:47:00,
2013-05-04 07:55:00,51.9,35.8,30.08,SE,130,2.0,-999.0,54,0.00,,,0.00,Wunderground v.1.15,2013-05-04 11:55:00,
2013-05-04 08:00:00,52.2,35.6,30.09,SE,142,2.0,-999.0,53,0.00,,,0.00,Wunderground v.1.15,2013-05-04 12:00:00,
2013-05-04 08:06:00,52.4,36.2,30.09,SSE,150,1.0,-999.0,54,0.00,,,0.00,Wunderground v.1.15,2013-05-04 12:06:00,
2013-05-04 08:12:00,52.9,36.2,30.08,SE,125,1.0,-999.0,53,0.00,,,0.00,Wunderground v.1.15,2013-05-04 12:12:00,
2013-05-04 08:17:00,53.5,35.8,30.08,East,99,2.0,-999.0,51,0.00,,,0.00,Wunderground v.1.15,2013-05-04 12:17:00,
2013-05-04 08:23:00,54.1,36.4,30.08,South,173,3.0,-999.0,51,0.00,,,0.00,Wunderground v.1.15,2013-05-04 12:23:00,
2013-05-04 08:29:00,54.4,36.6,30.08,SE,130,3.0,-999.0,51,0.00,,,0.00,Wunderground v.1.15,2013-05-04 12:29:00,
2013-05-04 08:34:00,54.5,35.7,30.08,South,172,3.0,-999.0,49,0.00,,,0.00,Wunderground v.1.15,2013-05-04 12:34:00,
2013-05-04 08:40:00,55.0,36.2,30.08,SSE,168,3.0,-999.0,49,0.00,,,0.00,Wunderground v.1.15,2013-05-04 12:40:00,
2013-05-04 08:45:00,55.4,34.9,30.08,SSE,157,5.0,-999.0,46,0.00,,,0.00,Wunderground v.1.15,2013-05-04 12:45:00,
2013-05-04 08:51:00,55.5,35.6,30.08,SSE,155,5.0,-999.0,47,0.00,,,0.00,Wunderground v.1.15,2013-05-04 12:51:00,
2013-05-04 08:57:00,55.2,35.3,30.08,SSE,147,5.0,-999.0,47,0.00,,,0.00,Wunderground v.1.15,2013-05-04 12:57:00,
2013-05-04 09:03:00,55.1,35.2,30.08,SSE,153,5.0,-999.0,47,0.00,,,0.00,Wunderground v.1.15,2013-05-04 13:03:00,
2013-05-04 09:04:00,55.1,35.2,30.08,SSE,148,5.0,-999.0,47,0.00,,,0.00,Wunderground v.1.15,2013-05-04 13:04:00,
2013-05-04 09:10:00,55.2,35.3,30.08,SSE,153,6.0,-999.0,47,0.00,,,0.00,Wunderground v.1.15,2013-05-04 13:10:00,
2013-05-04 09:16:00,55.4,36.0,30.08,SSE,147,5.0,-999.0,48,0.00,,,0.00,Wunderground v.1.15,2013-05-04 13:16:00,
2013-05-04 09:22:00,56.0,36.6,30.08,SSE,147,3.0,-999.0,48,0.00,,,0.00,Wunderground v.1.15,2013-05-04 13:22:00,
2013-05-04 09:28:00,56.2,35.7,30.08,SSE,156,3.0,-999.0,46,0.00,,,0.00,Wunderground v.1.15,2013-05-04 13:28:00,
2013-05-04 09:34:00,56.2,35.7,30.08,SSE,155,4.0,-999.0,46,0.00,,,0.00,Wunderground v.1.15,2013-05-04 13:34:00,
2013-05-04 09:39:00,56.3,35.8,30.08,SSE,159,4.0,-999.0,46,0.00,,,0.00,Wunderground v.1.15,2013-05-04 13:39:00,
2013-05-04 09:45:00,56.5,35.4,30.08,SSE,157,4.0,-999.0,45,0.00,,,0.00,Wunderground v.1.15,2013-05-04 13:45:00,
2013-05-04 09:51:00,56.8,35.7,30.08,SE,144,4.0,-999.0,45,0.00,,,0.00,Wunderground v.1.15,2013-05-04 13:51:00,
2013-05-04 09:57:00,57.2,36.0,30.08,SE,142,6.0,-999.0,45,0.00,,,0.00,Wunderground v.1.15,2013-05-04 13:57:00,
2013-05-04 10:03:00,58.1,36.3,30.08,SSE,147,7.0,-999.0,44,0.00,,,0.00,Wunderground v.1.15,2013-05-04 14:03:00,
2013-05-04 10:09:00,58.9,35.8,30.07,SE,142,8.0,-999.0,42,0.00,,,0.00,Wunderground v.1.15,2013-05-04 14:09:00,
2013-05-04 10:15:00,59.4,36.3,30.07,SSE,155,7.0,-999.0,42,0.00,,,0.00,Wunderground v.1.15,2013-05-04 14:15:00,
2013-05-04 10:21:00,59.5,36.4,30.07,SSE,153,5.0,-999.0,42,0.00,,,0.00,Wunderground v.1.15,2013-05-04 14:21:00,
2013-05-04 10:26:00,59.9,35.5,30.07,SE,142,4.0,-999.0,40,0.00,,,0.00,Wunderground v.1.15,2013-05-04 14:26:00,
2013-05-04 10:32:00,60.5,36.7,30.08,SSE,152,5.0,-999.0,41,0.00,,,0.00,Wunderground v.1.15,2013-05-04 14:32:00,
2013-05-04 10:38:00,60.4,35.9,30.07,SE,142,6.0,-999.0,40,0.00,,,0.00,Wunderground v.1.15,2013-05-04 14:38:00,
2013-05-04 10:44:00,60.3,35.9,30.07,South,169,6.0,-999.0,40,0.00,,,0.00,Wunderground v.1.15,2013-05-04 14:44:00,
2013-05-04 10:50:00,60.9,37.6,30.07,SSE,155,6.0,-999.0,42,0.00,,,0.00,Wunderground v.1.15,2013-05-04 14:50:00,
2013-05-04 10:56:00,61.5,38.2,30.07,SE,146,5.0,-999.0,42,0.00,,,0.00,Wunderground v.1.15,2013-05-04 14:56:00,
2013-05-04 11:02:00,61.7,37.1,30.07,SSE,150,6.0,-999.0,40,0.00,,,0.00,Wunderground v.1.15,2013-05-04 15:02:00,
2013-05-04 11:07:00,62.1,38.7,30.07,SE,146,6.0,-999.0,42,0.00,,,0.00,Wunderground v.1.15,2013-05-04 15:07:00,
2013-05-04 11:13:00,62.6,37.3,30.07,SSE,149,5.0,-999.0,39,0.00,,,0.00,Wunderground v.1.15,2013-05-04 15:13:00,
2013-05-04 11:19:00,63.3,38.6,30.07,SSE,157,5.0,-999.0,40,0.00,,,0.00,Wunderground v.1.15,2013-05-04 15:19:00,
2013-05-04 11:25:00,64.0,39.2,30.07,SSE,153,5.0,-999.0,40,0.00,,,0.00,Wunderground v.1.15,2013-05-04 15:25:00,
2013-05-04 11:31:00,64.0,37.9,30.07,SE,139,4.0,-999.0,38,0.00,,,0.00,Wunderground v.1.15,2013-05-04 15:31:00,
2013-05-04 11:37:00,64.2,40.0,30.07,SSE,148,4.0,-999.0,41,0.00,,,0.00,Wunderground v.1.15,2013-05-04 15:37:00,
2013-05-04 11:43:00,64.5,40.3,30.06,ESE,117,3.0,-999.0,41,0.00,,,0.00,Wunderground v.1.15,2013-05-04 15:43:00,
2013-05-04 11:49:00,64.8,41.8,30.06,SE,132,4.0,-999.0,43,0.00,,,0.00,Wunderground v.1.15,2013-05-04 15:49:00,
2013-05-04 11:54:00,65.4,40.4,30.06,SSE,156,5.0,-999.0,40,0.00,,,0.00,Wunderground v.1.15,2013-05-04 15:54:00,
2013-05-04 12:00:00,66.1,41.1,30.06,SSE,153,4.0,-999.0,40,0.00,,,0.00,Wunderground v.1.15,2013-05-04 16:00:00,
2013-05-04 12:06:00,65.6,41.3,30.06,SE,140,5.0,-999.0,41,0.00,,,0.00,Wunderground v.1.15,2013-05-04 16:06:00,
2013-05-04 12:12:00,64.5,39.6,30.06,South,180,6.0,-999.0,40,0.00,,,0.00,Wunderground v.1.15,2013-05-04 16:12:00,
2013-05-04 12:18:00,63.9,39.7,30.06,South,178,7.0,-999.0,41,0.00,,,0.00,Wunderground v.1.15,2013-05-04 16:18:00,
2013-05-04 12:24:00,64.5,41.5,30.06,SE,130,6.0,-999.0,43,0.00,,,0.00,Wunderground v.1.15,2013-05-04 16:24:00,
2013-05-04 12:30:00,65.7,43.2,30.06,ESE,108,5.0,-999.0,44,0.00,,,0.00,Wunderground v.1.15,2013-05-04 16:30:00,
2013-05-04 12:35:00,66.1,41.1,30.06,ENE,72,4.0,-999.0,40,0.00,,,0.00,Wunderground v.1.15,2013-05-04 16:35:00,
2013-05-04 12:41:00,66.2,41.2,30.05,SE,129,3.0,-999.0,40,0.00,,,0.00,Wunderground v.1.15,2013-05-04 16:41:00,
2013-05-04 12:47:00,66.2,40.5,30.05,SE,139,3.0,-999.0,39,0.00,,,0.00,Wunderground v.1.15,2013-05-04 16:47:00,
2013-05-04 12:53:00,66.0,41.0,30.05,East,99,3.0,-999.0,40,0.00,,,0.00,Wunderground v.1.15,2013-05-04 16:53:00,
2013-05-04 12:59:00,65.8,40.8,30.05,South,173,4.0,-999.0,40,0.00,,,0.00,Wunderground v.1.15,2013-05-04 16:59:00,
2013-05-04 13:05:00,66.1,42.9,30.04,SSE,162,5.0,-999.0,43,0.00,,,0.00,Wunderground v.1.15,2013-05-04 17:05:00,
2013-05-04 13:11:00,66.9,43.0,30.04,ENE,73,3.0,-999.0,42,0.00,,,0.00,Wunderground v.1.15,2013-05-04 17:11:00,
2013-05-04 13:17:00,67.8,42.6,30.04,East,94,3.0,-999.0,40,0.00,,,0.00,Wunderground v.1.15,2013-05-04 17:17:00,
2013-05-04 13:23:00,68.5,43.9,30.03,East,98,3.0,-999.0,41,0.00,,,0.00,Wunderground v.1.15,2013-05-04 17:23:00,
2013-05-04 13:28:00,68.3,42.4,30.03,SSE,164,4.0,-999.0,39,0.00,,,0.00,Wunderground v.1.15,2013-05-04 17:28:00,
2013-05-04 13:33:00,68.4,42.5,30.03,SE,138,4.0,-999.0,39,0.00,,,0.00,Wunderground v.1.15,2013-05-04 17:33:00,
2013-05-04 13:39:00,68.2,42.3,30.03,ESE,103,3.0,-999.0,39,0.00,,,0.00,Wunderground v.1.15,2013-05-04 17:39:00,
2013-05-04 13:45:00,68.2,41.6,30.03,SSE,154,4.0,-999.0,38,0.00,,,0.00,Wunderground v.1.15,2013-05-04 17:45:00,
2013-05-04 13:51:00,68.4,42.5,30.03,ENE,73,3.0,-999.0,39,0.00,,,0.00,Wunderground v.1.15,2013-05-04 17:51:00,
2013-05-04 13:57:00,68.9,40.8,30.03,SSE,154,3.0,-999.0,36,0.00,,,0.00,Wunderground v.1.15,2013-05-04 17:57:00,
2013-05-04 14:03:00,69.0,43.0,30.02,ENE,78,4.0,-999.0,39,0.00,,,0.00,Wunderground v.1.15,2013-05-04 18:03:00,
2013-05-04 14:08:00,69.3,44.6,30.02,South,180,3.0,-999.0,41,0.00,,,0.00,Wunderground v.1.15,2013-05-04 18:08:00,
2013-05-04 14:14:00,69.6,43.5,30.02,NE,44,6.0,-999.0,39,0.00,,,0.00,Wunderground v.1.15,2013-05-04 18:14:00,
2013-05-04 14:20:00,69.9,43.1,30.02,East,85,5.0,-999.0,38,0.00,,,0.00,Wunderground v.1.15,2013-05-04 18:20:00,
2013-05-04 14:26:00,70.3,44.2,30.01,SE,126,4.0,-999.0,39,0.00,,,0.00,Wunderground v.1.15,2013-05-04 18:26:00,
2013-05-04 14:32:00,70.8,43.2,30.01,SSE,161,4.0,-999.0,37,0.00,,,0.00,Wunderground v.1.15,2013-05-04 18:32:00,
2013-05-04 14:38:00,71.1,42.8,30.01,SE,144,6.0,-999.0,36,0.00,,,0.00,Wunderground v.1.15,2013-05-04 18:38:00,
2013-05-04 14:44:00,70.8,41.0,30.01,SE,142,5.0,-999.0,34,0.00,,,0.00,Wunderground v.1.15,2013-05-04 18:44:00,
2013-05-04 14:50:00,71.1,41.3,30.01,ESE,123,5.0,-999.0,34,0.00,,,0.00,Wunderground v.1.15,2013-05-04 18:50:00,
2013-05-04 14:55:00,70.4,42.2,30.00,East,86,5.0,-999.0,36,0.00,,,0.00,Wunderground v.1.15,2013-05-04 18:55:00,
2013-05-04 15:01:00,70.5,40.8,30.00,ENE,68,4.0,-999.0,34,0.00,,,0.00,Wunderground v.1.15,2013-05-04 19:01:00,